Other Public Products
Issued by NWS Grand Forks, ND

Home | Current Version | Previous Version | Text Only | Print | Product List | Glossary Off
Versions: 1 2 3 4 5 6 7 8 9 10 11 12 13 14 15 16 17 18 19 20 21 22 23 24 25 26 27 28 29 30 31 32 33 34 35 36 37 38 39 40 41 42 43 44 45 46 47 48 49 50

060
FPUS83 KFGF 230331
OPUFGF
PRAIRIE TO PINES WEATHER ROUNDUP
NATIONAL WEATHER SERVICE EASTERN NORTH DAKOTA/GRAND FORKS ND
1000 PM CDT SAT JUL 22 2017

 **SATELLITE DATA USED TO AUGMENT SKY COVER AT AUTOMATED STATIONS**
 *****  WEATHER ACROSS EASTERN NORTH DAKOTA  *****

CITY           SKY/WX    TMP DP  RH WIND       PRES   REMARKS
GRAND FORKS    MOCLDY    69  58  67 NW8       29.88R
GRAND FORKS AF NOT AVBL
GRAND CITY NWS NOT AVBL
BUXTON           N/A     65  63  92 NW6         N/A
DEVILS LAKE    FAIR      65  57  75 NW9       29.96R
FARGO          FAIR      68  59  73 NW6       29.88R
WAHPETON ARPT  FAIR      70  57  64 NW8       29.89R
$$

 *****  WEATHER ACROSS CENTRAL AND WESTERN NORTH DAKOTA  *****

CITY           SKY/WX    TMP DP  RH WIND       PRES   REMARKS
JAMESTOWN      FAIR      68  57  68 N8        29.95R
BISMARCK       FAIR      74  52  46 N9        29.99R
MINOT          FAIR      65  53  65 NW8       30.00R
MINOT AFB      NOT AVBL
GARRISON         N/A     68  55  63 NE5       30.00R
WILLISTON      FAIR      75  50  41 N8        30.03R
DICKINSON      FAIR      71  49  45 N7        30.03R
HETTINGER      FAIR      70  46  42 N7        30.06R
$$

 *****  OTHER OBSERVATIONS NORTHEAST NORTH DAKOTA  *****

CITY           SKY/WX    TMP DP  RH WIND       PRES   REMARKS
WALHALLA       NOT AVBL
LANGDON        MOCLDY    64  63  94 NW14G20   29.95R
CAVALIER         N/A     63  61  94 NW8       29.90R
GRAFTON        FAIR      64  63  94 NW12      29.92R
CANDO          NOT AVBL
FORT TOTTEN      N/A     68  56  66 N7        29.95S
ROLLA            N/A     63  61  94 NW9       30.00R
RUGBY          NOT AVBL
 ***** THE ABOVE OBSERVATIONS ARE NON NWS ARE NOT QUALITY
        CONTROLLED AND MAY MIS-REPORT RAIN FOR SNOW...
$$

 *****  OTHER OBSERVATIONS SOUTHEAST NORTH DAKOTA *****

CITY           SKY/WX    TMP DP  RH WIND       PRES   REMARKS
COOPERSTOWN    FAIR      66  59  77 NW8       29.95R
VALLEY CITY    FAIR      66  63  88 NW5       29.96R
OAKES          NOT AVBL
GWINNER        CLEAR     66  61  82 NW7       29.92R
SHEYENNE NWR     N/A     72  58  62 N6        29.95S
BUFFALO          N/A     65  57  74 NE5         N/A
WYNDMERE       NOT AVBL
 ***** THE ABOVE OBSERVATIONS ARE NON NWS ARE NOT QUALITY
       CONTROLLED AND MAY MIS-REPORT RAIN FOR SNOW...
$$

  *****  WEATHER ACROSS NORTHERN MINNESOTA  *****

CITY           SKY/WX    TMP DP  RH WIND       PRES   REMARKS
FLAG ISLAND    FAIR      64  61  88 N7        29.82R FOG
WARROAD        CLOUDY    61  57  88 W3        29.86R
ROSEAU         FAIR      61  55  82 W6        29.85S
HALLOCK        CLOUDY    63  63 100 NW8       29.87R
THF RVR FALLS  MOCLDY    62  60  93 NW9       29.89R
HALSTAD          N/A     62  59  90 NW6         N/A
FOSSTON        FAIR      61  57  88 NW6       29.89R
BAUDETTE       CLOUDY    63  61  93 NW8       29.82R
WASKISH        FAIR      64  61  88 W13G21    29.84R
CROOKSTON      CLOUDY    64  61  88 N8        29.89R
$$
  *****  WEATHER ACROSS CENTRAL AND WEST MINNESOTA  *****

CITY           SKY/WX    TMP DP  RH WIND       PRES   REMARKS
BEMIDJI        FAIR      64  56  74 NW8       29.87R
PARK RAPIDS    FAIR      66  56  70 W6        29.87R
WADENA         FAIR      68  57  68 N7        29.88R
DETROIT LAKES  FAIR      64  57  77 NW6       29.91R
MOORHEAD       FAIR      64  59  82 CALM      29.90R
FERGUS FALLS   FAIR      70  61  73 N6        29.88R
ELBOW LAKE     MOCLDY    73  62  68 NW9       29.89R
MORRIS MN      FAIR      72  61  68 N7        29.87R
STAPLES        FAIR      70  55  60 NW7       29.87R
WHEATON        FAIR      70  61  73 NW5       29.90R
$$
  *****  WEATHER ELSEWHERE ACROSS MINNESOTA  *****

CITY           SKY/WX    TMP DP  RH WIND       PRES   REMARKS
DULUTH         FAIR      55  54  96 SE6       29.83S
INTRNTL FALLS  CLOUDY    64  60  87 CALM      29.81R
ELY            FAIR      63  61  94 CALM      29.82R
CLOQUET        CLOUDY    57  55  94 CALM      29.84S FOG
BRAINERD       MOCLDY    73  53  49 W6        29.85R
HIBBING        MOCLDY    67  55  65 W6        29.82R
ALEXANDRIA     FAIR      70  62  76 NW5       29.89R
SAINT CLOUD    FAIR      67  63  87 CALM      29.84S
MINNEAPOLIS    FAIR      80  60  50 N6        29.84R
$$

  *****  WEATHER ACROSS SOUTH DAKOTA  *****

CITY           SKY/WX    TMP DP  RH WIND       PRES   REMARKS
SIOUX FALLS    FAIR      75  66  73 CALM      29.91R
BROOKINGS      FAIR      75  63  66 W3        29.91S
WATERTOWN      FAIR      69  61  75 SW7       29.89R
HURON          FAIR      74  66  76 W3        29.90R
SISSETON         N/A     69  64  84 NW9       29.88R
ABERDEEN       FAIR      73  55  53 NW10      29.92R
MITCHELL       FAIR      82  64  54 SW3       29.91R
PIERRE         FAIR      75  44  33 NE10      29.94R
MOBRIDGE       FAIR      72  56  57 NE8       29.95R
RAPID CITY     FAIR      71  45  39 NE8       30.06R
$$

  *****  SOME WEATHER IN NEARBY STATES *****

CITY           SKY/WX    TMP DP  RH WIND       PRES   REMARKS
GLASGOW MT     FAIR      74  45  35 MISG      30.01R
GREAT FALLS MT FAIR      82  38  20 NW3       30.06S
CHEYENNE WY    FAIR      72  49  44 S13G23    30.24R
SCOTTSBLUFF NE FAIR      77  54  44 S6        30.09R
OMAHA NE       MOCLDY    79  73  82 NW14      29.91S
DES MOINES IA  CLOUDY    83  73  72 N5        29.87R
DAVENPORT IA   FAIR      75  73  93 NW3       29.85R
CHICAGO IL     FAIR      77  69  76 NE3       29.82R
EAU CLAIRE WI  FAIR      72  69  90 N10G17    29.82R THUNDER
LA CROSSE WI   FAIR      71  68  90 CALM      29.82F
$$

  *****  SOME NATIONAL WEATHER *****

CITY           SKY/WX    TMP DP  RH WIND       PRES   REMARKS
LA GUARDIA NY  CLOUDY    79  75  87 S6        29.75F
RALEIGH NC     FAIR      86  72  62 SW14      29.89S HX  92
ATLANTA GA     FAIR      78  74  87 SW5       29.99F
NEW ORLEANS LA FAIR      78  74  87 CALM      30.00R
OKLAHOMA CITY  FAIR      88  69  53 SE10      29.88R HX  92
ALBUQUERQUE NM LGT RAIN  72  64  76 SE13      30.16R
SALT LAKE CITY MOCLDY    90  47  22 N7        30.02S
LOS ANGELES CA FAIR      70  64  81 W9        29.86R
BOISE ID       FAIR      87  37  17 W6        30.00S
SEATTLE WA     FAIR      74  57  55 N14       30.09S
$$

*** WEATHER ACROSS MANITOBA...SASKATCHEWAN AND ONTARIO ***
                ***ONTARIO***

CITY           SKY/WX    TMP DP  RH WIND       PRES   REMARKS
GERALDTON      MOCLDY    63  54  72 E3        29.89R
THUNDER BAY    CLOUDY    59  57  94 E10       29.83F
SIOUX LOOKOUT  CLOUDY    63  59  88 NE3       29.87R
TORONTO        LGT RAIN  70  64  83 CALM      29.82S
BIG TROUT LK   CLEAR     61  41  48 NE5       29.96R
PICKLE LAKE    NOT AVBL
DRYDEN         MOCLDY    64  61  88 E8        29.84R
KENORA         LGT RAIN  61  61 100 N7        29.85R FOG
$$
                *** MANITOBA***

CITY           SKY/WX    TMP DP  RH WIND       PRES   REMARKS
BRANDON        MOCLDY    63  59  88 NW6       29.98R
DAUPHIN        CLEAR     61  59  94 W5        29.98R
ISLAND LAKE    NOT AVBL
PILOT MOUND      N/A     63  59  88 N9          N/A
THE PAS        PTCLDY    63  50  63 CALM      29.95R
THOMPSON       PTCLDY    63  48  59 CALM      29.91R
WINNIPEG       PTCLDY    61  59  94 NW7       29.89R
LYNN LAKE      CLEAR     68  48  49 S7        29.88S
CHURCHILL      PTCLDY    64  48  55 S10       29.86R
GILLAM         PTCLDY    61  45  55 S3        29.91R
$$
                ***SASKATCHEWAN***

CITY           SKY/WX    TMP DP  RH WIND       PRES   REMARKS
ESTEVAN        PTCLDY    61  59  94 NE17      30.03R
KINDERSLEY     MOCLDY    66  59  77 E8        29.98S
LLOYDMINSTER   MOCLDY    68  59  73 S6        29.95S
PRINCE ALBERT  PTCLDY    66  57  72 S5        29.98S
REGINA         PTCLDY    70  54  56 N5        30.02R
YORKTON        CLEAR     64  57  77 SW2       30.01R



USA.gov is the U.S. government's official web portal to all federal, state and local government web resources and services.